Location: Oakhurst
(33.6448°N, 111.9543°W)
Time: 02:36:50
(UTC+00:00)

DUCHIFAT 1 - Pass Details

Date: 30 July 2021
Orbit: 585 x 602 km, 98.0° (Epoch: 24 September)

Event Time Altitude Azimuth Distance (km) Brightness Sun altitude
Rises 10:19:32 0° 351° (N) 2,842 ? -24.7°
Reaches altitude 10° 10:22:21 10° 331° (NNW) 1,939 ? -24.3°
Enters shadow 10:23:43 15° 313° (NW) 1,652 ? -24.1°
